Royersford, PA

4:52 PM EST on February 21, 2017 (GMT -0500)
Pottstown Limerick

Weather History for KPTW - March, 2014

Change the Weather History Date:

Friday, March 14, 2014

  Actual Average (KRDG) Record (KRDG)
Temperature  
Mean Temperature 34 °F -  
Max Temperature 48 °F 45 °F 81 °F (1990)
Min Temperature 21 °F 29 °F 15 °F (1993)
Degree Days  
Heating Degree Days 30    
Moisture  
Dew Point 13 °F    
Average Humidity 41    
Maximum Humidity 55    
Minimum Humidity 28    
Precipitation  
Precipitation 0.00 in - - ()
Sea Level Pressure  
Sea Level Pressure 30.09 in    
Wind  
Wind Speed 5 mph (SSW)    
Max Wind Speed 14 mph    
Max Gust Speed 20 mph    
Visibility 10 miles    
Events      
Averages and records for this station are not official NWS values.
T = Trace of Precipitation, MM = Missing Value Source: NWS Daily Summary

Daily Weather History Graph

Daily Weather History Graph

Search for Another Location

Airport or City:

Trip Planner

Search our weather history database for the weather conditions in past years. The results will help you decide how hot, cold, wet, or windy it might be!

Date:

Astronomy

Mar. 14, 2014 Rise Set
Actual Time 7:15 AM EDT 7:07 PM EDT
Civil Twilight 6:48 AM EDT 7:35 PM EDT
Nautical Twilight 6:16 AM EDT 8:06 PM EDT
Astronomical Twilight 5:44 AM EDT 8:38 PM EDT
Moon 5:27 PM EDT (3/14) 5:54 AM EDT (3/14)
Length of Visible Light 12h 46m
Length of Day
11h 52m
Waxing Gibbous, 96% of the Moon is Illuminated
Mar 14
Waxing Gibbous
Mar 16
Full
Mar 23
Last Quarter
Mar 30
New
Apr 7
First Quarter

Hourly Weather History & Observations

Time (EDT) Temp. Windchill Dew Point Humidity Pressure Visibility Wind Dir Wind Speed Gust Speed Precip Events Conditions
12:54 AM 24.1 °F 17.0 °F 3.0 °F 40% 30.15 in 10.0 mi WNW 5.8 mph - N/A   Clear
1:54 AM 21.9 °F - 3.0 °F 44% 30.15 in 10.0 mi Calm Calm - N/A   Clear
2:54 AM 23.0 °F - 3.0 °F 42% 30.16 in 10.0 mi Calm Calm - N/A   Clear
3:54 AM 21.9 °F 17.2 °F 3.9 °F 46% 30.17 in 10.0 mi WSW 3.5 mph - N/A   Clear
4:54 AM 21.9 °F 17.2 °F 5.0 °F 48% 30.17 in 10.0 mi Variable 3.5 mph - N/A   Clear
5:54 AM 21.0 °F - 6.1 °F 53% 30.19 in 10.0 mi Calm Calm - N/A   Clear
6:54 AM 23.0 °F 18.4 °F 9.0 °F 55% 30.20 in 10.0 mi SW 3.5 mph - N/A   Overcast
7:54 AM 25.0 °F 20.7 °F 10.0 °F 53% 30.21 in 10.0 mi South 3.5 mph - N/A   Overcast
8:54 AM 27.0 °F 23.0 °F 10.9 °F 51% 30.22 in 10.0 mi South 3.5 mph - N/A   Overcast
9:54 AM 28.9 °F 22.8 °F 10.9 °F 47% 30.21 in 10.0 mi South 5.8 mph - N/A   Overcast
10:54 AM 32.0 °F 25.6 °F 12.0 °F 44% 30.21 in 10.0 mi South 6.9 mph - N/A   Overcast
11:54 AM 34.0 °F 27.2 °F 12.0 °F 40% 30.19 in 10.0 mi South 8.1 mph - N/A   Overcast
12:54 PM 39.9 °F 32.1 °F 17.1 °F 40% 30.15 in 10.0 mi South 13.8 mph 18.4 mph N/A   Clear
1:54 PM 43.0 °F 37.7 °F 15.1 °F 32% 30.11 in 10.0 mi SSW 9.2 mph 19.6 mph N/A   Clear
2:54 PM 46.0 °F 40.2 °F 15.1 °F 29% 30.08 in 10.0 mi SSW 12.7 mph 19.6 mph N/A   Clear
3:54 PM 46.9 °F - 15.1 °F 28% 30.04 in 10.0 mi South 10.4 mph 19.6 mph N/A   Clear
4:54 PM 48.0 °F - 18.0 °F 30% 30.01 in 10.0 mi South 11.5 mph 18.4 mph N/A   Clear
5:54 PM 48.0 °F - 21.0 °F 34% 29.99 in 10.0 mi South 9.2 mph - N/A   Clear
6:54 PM 46.0 °F 43.9 °F 21.0 °F 37% 29.96 in 10.0 mi South 4.6 mph - N/A   Clear
7:54 PM 45.0 °F 41.2 °F 21.0 °F 39% 29.96 in 10.0 mi South 6.9 mph - N/A   Clear
8:54 PM 45.0 °F 40.1 °F 19.9 °F 37% 29.94 in 10.0 mi South 9.2 mph - N/A   Clear
9:54 PM 45.0 °F 39.7 °F 19.9 °F 37% 29.94 in 10.0 mi South 10.4 mph 18.4 mph N/A   Clear
10:54 PM 43.0 °F 39.5 °F 23.0 °F 45% 29.91 in 10.0 mi South 5.8 mph - N/A   Clear
11:54 PM 44.1 °F 42.5 °F 24.1 °F 45% 29.88 in 10.0 mi South 3.5 mph - N/A   Overcast